AFR22TJ LGAV-LFPG

Flight info

Callsign AFR22TJ
Flight time 3h 13m
Altitude 38000
Route KOR UL53 OLGAT DCT NUTRO DCT CERVI DCT MOLUS DCT UNKIR DCT TINIL
Aircraft A321/M-SDE2E3FGIJ1RWY/HB1

Departure

Time 2026-05-08 17:02
Airport Athens Eleftherios Venizelos International Airport (LGAV)

Arrival

Time 2026-05-08 20:16
Airport Charles de Gaulle International Airport (LFPG)
Time Latitude Longitude Altitude Speed Heading
2026-05-08 16:33 37.93172 23.94323 301 ft 0 kts 217°
2026-05-08 16:52 37.93173 23.94324 301 ft 1 kts 217°
2026-05-08 16:52 37.93193 23.94342 301 ft 4 kts 218°
2026-05-08 16:52 37.93209 23.94358 304 ft 4 kts 206°
2026-05-08 16:53 37.93247 23.94348 301 ft 0 kts 127°
2026-05-08 16:55 37.93237 23.94365 301 ft 8 kts 127°
2026-05-08 16:55 37.93178 23.94465 303 ft 20 kts 127°
2026-05-08 16:55 37.93094 23.94607 301 ft 16 kts 126°
2026-05-08 16:55 37.93060 23.94692 302 ft 9 kts 90°
2026-05-08 16:56 37.93104 23.94764 309 ft 16 kts 38°
2026-05-08 16:56 37.93201 23.94857 303 ft 17 kts 37°
2026-05-08 16:56 37.93311 23.94960 300 ft 24 kts 37°
2026-05-08 16:56 37.93469 23.95111 299 ft 30 kts 36°
2026-05-08 16:57 37.93611 23.95244 298 ft 24 kts 37°
2026-05-08 16:57 37.93736 23.95363 298 ft 21 kts 37°
2026-05-08 16:57 37.93850 23.95473 299 ft 20 kts 37°
2026-05-08 16:57 37.93956 23.95574 296 ft 19 kts 36°
2026-05-08 16:58 37.94067 23.95676 301 ft 21 kts 36°
2026-05-08 16:58 37.94185 23.95788 301 ft 22 kts 37°
2026-05-08 16:58 37.94320 23.95917 299 ft 26 kts 37°
2026-05-08 16:58 37.94459 23.96048 299 ft 24 kts 37°
2026-05-08 16:59 37.94585 23.96169 303 ft 22 kts 37°
2026-05-08 16:59 37.94710 23.96288 302 ft 26 kts 37°
2026-05-08 16:59 37.94863 23.96432 301 ft 27 kts 37°
2026-05-08 16:59 37.95005 23.96566 303 ft 24 kts 37°
2026-05-08 17:00 37.95133 23.96688 304 ft 21 kts 37°
2026-05-08 17:00 37.95248 23.96797 303 ft 20 kts 37°
2026-05-08 17:00 37.95298 23.96873 305 ft 7 kts 90°
2026-05-08 17:00 37.95266 23.96949 306 ft 12 kts 124°
2026-05-08 17:01 37.95218 23.97019 310 ft 10 kts 153°
2026-05-08 17:01 37.95152 23.96985 310 ft 15 kts 217°
2026-05-08 17:01 37.94898 23.96744 306 ft 80 kts 217°
2026-05-08 17:01 37.94288 23.96164 286 ft 136 kts 217°
2026-05-08 17:02 37.93411 23.95332 309 ft 174 kts 217°
2026-05-08 17:02 37.92442 23.94495 923 ft 170 kts 210°
2026-05-08 17:02 37.91402 23.93778 1604 ft 168 kts 207°
2026-05-08 17:02 37.90368 23.93125 2280 ft 165 kts 207°
2026-05-08 17:03 37.89348 23.92459 2852 ft 164 kts 208°
2026-05-08 17:03 37.88336 23.91786 3331 ft 165 kts 209°
2026-05-08 17:03 37.87303 23.91090 3599 ft 177 kts 210°
2026-05-08 17:03 37.86163 23.90317 3735 ft 194 kts 210°
2026-05-08 17:04 37.84922 23.89473 3853 ft 212 kts 209°
2026-05-08 17:04 37.83554 23.88544 4061 ft 232 kts 209°
2026-05-08 17:04 37.82228 23.87291 4464 ft 246 kts 232°
2026-05-08 17:04 37.81660 23.86041 4835 ft 250 kts 251°
2026-05-08 17:05 37.81521 23.83820 5503 ft 257 kts 279°
2026-05-08 17:05 37.81989 23.81663 6277 ft 257 kts 283°
2026-05-08 17:05 37.82486 23.79466 7062 ft 255 kts 283°
2026-05-08 17:05 37.82960 23.77339 7790 ft 255 kts 283°
2026-05-08 17:06 37.83438 23.75176 8486 ft 256 kts 283°
2026-05-08 17:06 37.83918 23.73003 9196 ft 257 kts 283°
2026-05-08 17:06 37.84399 23.70821 9908 ft 257 kts 283°
2026-05-08 17:06 37.84882 23.68616 10351 ft 268 kts 283°
2026-05-08 17:07 37.85395 23.66258 10477 ft 288 kts 283°
2026-05-08 17:07 37.85944 23.63742 10619 ft 305 kts 283°
2026-05-08 17:07 37.86518 23.61119 11032 ft 312 kts 283°
2026-05-08 17:07 37.87100 23.58464 11588 ft 315 kts 283°
2026-05-08 17:08 37.87687 23.55779 12159 ft 318 kts 283°
2026-05-08 17:08 37.88277 23.53075 12735 ft 320 kts 283°
2026-05-08 17:08 37.88874 23.50344 13301 ft 323 kts 283°
2026-05-08 17:08 37.89476 23.47598 13865 ft 325 kts 283°
2026-05-08 17:09 37.90084 23.44822 14317 ft 329 kts 283°
2026-05-08 17:09 37.90695 23.42023 14846 ft 331 kts 283°
2026-05-08 17:09 37.91306 23.39217 15420 ft 331 kts 283°
2026-05-08 17:09 37.91917 23.36408 15934 ft 332 kts 283°
2026-05-08 17:10 37.92529 23.33578 16431 ft 334 kts 283°
2026-05-08 17:10 37.93141 23.30738 16920 ft 336 kts 282°
2026-05-08 17:10 37.93757 23.27877 17375 ft 338 kts 282°
2026-05-08 17:10 37.94377 23.24996 17831 ft 340 kts 282°
2026-05-08 17:11 37.95003 23.22098 18290 ft 342 kts 282°
2026-05-08 17:11 37.95629 23.19187 18671 ft 344 kts 282°
2026-05-08 17:11 37.96260 23.16252 19033 ft 346 kts 283°
2026-05-08 17:11 37.96893 23.13299 19387 ft 348 kts 282°
2026-05-08 17:12 37.97526 23.10335 19769 ft 349 kts 282°
2026-05-08 17:12 37.98129 23.07516 20145 ft 349 kts 283°
2026-05-08 17:12 37.98767 23.04539 20515 ft 350 kts 283°
2026-05-08 17:12 37.99407 23.01552 20850 ft 352 kts 283°
2026-05-08 17:13 38.00051 22.98547 21172 ft 354 kts 283°
2026-05-08 17:13 38.00694 22.95530 21536 ft 356 kts 283°
2026-05-08 17:13 38.01341 22.92495 21906 ft 357 kts 283°
2026-05-08 17:13 38.01988 22.89449 22265 ft 359 kts 283°
2026-05-08 17:14 38.02638 22.86384 22609 ft 361 kts 283°
2026-05-08 17:14 38.03291 22.83305 22962 ft 362 kts 283°
2026-05-08 17:14 38.03944 22.80211 23308 ft 364 kts 283°
2026-05-08 17:14 38.04597 22.77099 23661 ft 366 kts 283°
2026-05-08 17:15 38.05252 22.73986 24015 ft 365 kts 283°
2026-05-08 17:15 38.05976 22.70898 24336 ft 367 kts 289°
2026-05-08 17:15 38.07131 22.67984 24636 ft 373 kts 298°
2026-05-08 17:15 38.08611 22.65269 24923 ft 375 kts 300°
2026-05-08 17:16 38.10090 22.62586 25220 ft 376 kts 300°
2026-05-08 17:16 38.11608 22.59821 25506 ft 377 kts 300°
2026-05-08 17:16 38.13087 22.57112 25779 ft 379 kts 300°
2026-05-08 17:16 38.14586 22.54354 26054 ft 380 kts 300°
2026-05-08 17:17 38.16090 22.51585 26331 ft 381 kts 300°
2026-05-08 17:17 38.17598 22.48811 26599 ft 383 kts 300°
2026-05-08 17:17 38.19117 22.46022 26870 ft 384 kts 300°
2026-05-08 17:17 38.20641 22.43232 27235 ft 384 kts 300°
2026-05-08 17:18 38.22164 22.40445 27561 ft 384 kts 300°
2026-05-08 17:18 38.23683 22.37652 27835 ft 385 kts 300°
2026-05-08 17:18 38.25204 22.34847 28098 ft 386 kts 300°
2026-05-08 17:18 38.26729 22.32033 28348 ft 387 kts 300°
2026-05-08 17:19 38.28264 22.29205 28593 ft 389 kts 300°
2026-05-08 17:19 38.29802 22.26368 28836 ft 390 kts 300°
2026-05-08 17:19 38.31342 22.23523 29119 ft 390 kts 300°
2026-05-08 17:19 38.32885 22.20671 29366 ft 391 kts 300°
2026-05-08 17:20 38.34426 22.17817 29591 ft 392 kts 300°
2026-05-08 17:20 38.35973 22.14953 29805 ft 393 kts 300°
2026-05-08 17:20 38.37524 22.12081 30024 ft 394 kts 300°
2026-05-08 17:20 38.39076 22.09202 30232 ft 394 kts 300°
2026-05-08 17:21 38.40624 22.06329 30476 ft 392 kts 300°
2026-05-08 17:21 38.42166 22.03465 30671 ft 392 kts 300°
2026-05-08 17:21 38.43706 22.00597 30893 ft 391 kts 300°
2026-05-08 17:21 38.45237 21.97742 31130 ft 390 kts 300°
2026-05-08 17:22 38.46764 21.94892 31356 ft 388 kts 300°
2026-05-08 17:22 38.48284 21.92049 31596 ft 387 kts 300°
2026-05-08 17:22 38.49779 21.89253 31812 ft 386 kts 300°
2026-05-08 17:22 38.51289 21.86422 32056 ft 385 kts 300°
2026-05-08 17:23 38.52795 21.83604 32236 ft 384 kts 300°
2026-05-08 17:23 38.54298 21.80784 32477 ft 384 kts 300°
2026-05-08 17:23 38.55798 21.77971 32680 ft 383 kts 301°
2026-05-08 17:23 38.57298 21.75159 32901 ft 383 kts 301°
2026-05-08 17:24 38.58795 21.72348 33153 ft 382 kts 301°
2026-05-08 17:24 38.60286 21.69542 33407 ft 381 kts 301°
2026-05-08 17:24 38.61768 21.66746 33648 ft 380 kts 301°
2026-05-08 17:24 38.63249 21.63953 33889 ft 379 kts 301°
2026-05-08 17:25 38.64728 21.61166 34087 ft 379 kts 301°
2026-05-08 17:25 38.66210 21.58376 34237 ft 380 kts 301°
2026-05-08 17:25 38.67694 21.55581 34412 ft 380 kts 301°
2026-05-08 17:25 38.69178 21.52777 34605 ft 380 kts 301°
2026-05-08 17:26 38.70655 21.49975 34794 ft 379 kts 301°
2026-05-08 17:26 38.72130 21.47173 34939 ft 380 kts 301°
2026-05-08 17:26 38.73606 21.44370 35100 ft 380 kts 301°
2026-05-08 17:26 38.75084 21.41565 35237 ft 380 kts 301°
2026-05-08 17:27 38.76562 21.38758 35350 ft 380 kts 301°
2026-05-08 17:27 38.78044 21.35949 35511 ft 380 kts 301°
2026-05-08 17:27 38.79528 21.33137 35645 ft 380 kts 301°
2026-05-08 17:27 38.80936 21.30463 35765 ft 381 kts 300°
2026-05-08 17:28 38.82413 21.27649 35899 ft 381 kts 300°
2026-05-08 17:28 38.83891 21.24827 36011 ft 381 kts 300°
2026-05-08 17:28 38.85370 21.22002 36137 ft 381 kts 300°
2026-05-08 17:28 38.86847 21.19178 36263 ft 381 kts 300°
2026-05-08 17:29 38.88326 21.16354 36380 ft 381 kts 300°
2026-05-08 17:29 38.89805 21.13529 36498 ft 381 kts 300°
2026-05-08 17:29 38.91280 21.10705 36624 ft 381 kts 301°
2026-05-08 17:29 38.92752 21.07884 36745 ft 380 kts 300°
2026-05-08 17:30 38.94224 21.05061 36877 ft 380 kts 300°
2026-05-08 17:30 38.95690 21.02246 36999 ft 379 kts 300°
2026-05-08 17:30 38.97135 20.99466 37138 ft 379 kts 300°
2026-05-08 17:30 38.98592 20.96660 37293 ft 378 kts 301°
2026-05-08 17:31 39.00053 20.93847 37418 ft 377 kts 301°
2026-05-08 17:31 39.01509 20.91044 37550 ft 376 kts 301°
2026-05-08 17:31 39.02960 20.88246 37683 ft 376 kts 301°
2026-05-08 17:31 39.04406 20.85456 37817 ft 375 kts 301°
2026-05-08 17:32 39.05847 20.82671 37987 ft 373 kts 301°
2026-05-08 17:32 39.07283 20.79893 38044 ft 374 kts 301°
2026-05-08 17:32 39.10183 20.74278 38042 ft 378 kts 301°
2026-05-08 17:33 39.13109 20.68607 38043 ft 382 kts 301°
2026-05-08 17:33 39.16058 20.62879 38042 ft 384 kts 301°
2026-05-08 17:34 39.19006 20.57126 38051 ft 385 kts 301°
2026-05-08 17:34 39.21959 20.51363 38060 ft 385 kts 301°
2026-05-08 17:35 39.24916 20.45597 38058 ft 386 kts 300°
2026-05-08 17:35 39.27866 20.39818 38052 ft 385 kts 300°
2026-05-08 17:36 39.30814 20.34039 38056 ft 385 kts 300°
2026-05-08 17:36 39.33761 20.28250 38055 ft 386 kts 301°
2026-05-08 17:37 39.36684 20.22491 38040 ft 386 kts 301°
2026-05-08 17:37 39.39633 20.16684 38024 ft 387 kts 301°
2026-05-08 17:38 39.42576 20.10871 38030 ft 387 kts 300°
2026-05-08 17:38 39.45857 20.05330 38025 ft 391 kts 310°
2026-05-08 17:39 39.49676 20.00318 38023 ft 391 kts 310°
2026-05-08 17:39 39.53485 19.95298 38026 ft 391 kts 310°
2026-05-08 17:40 39.57288 19.90261 38017 ft 391 kts 310°
2026-05-08 17:40 39.61089 19.85226 38022 ft 391 kts 310°
2026-05-08 17:41 39.64892 19.80186 38016 ft 390 kts 310°
2026-05-08 17:41 39.68684 19.75146 38018 ft 390 kts 310°
2026-05-08 17:42 39.72475 19.70097 38016 ft 390 kts 310°
2026-05-08 17:42 39.76261 19.65045 38012 ft 390 kts 310°
2026-05-08 17:43 39.80047 19.59995 38009 ft 390 kts 310°
2026-05-08 17:43 39.83834 19.54941 38012 ft 390 kts 310°
2026-05-08 17:44 39.87612 19.49875 38013 ft 390 kts 310°
2026-05-08 17:44 39.91388 19.44800 38010 ft 390 kts 310°
2026-05-08 17:45 39.95156 19.39716 38004 ft 390 kts 310°
2026-05-08 17:45 39.98930 19.34631 38010 ft 391 kts 310°
2026-05-08 17:46 40.02683 19.29568 38016 ft 391 kts 310°
2026-05-08 17:46 40.06462 19.24467 38012 ft 391 kts 310°
2026-05-08 17:47 40.10268 19.19317 38017 ft 391 kts 310°
2026-05-08 17:47 40.13407 19.15063 38019 ft 391 kts 310°
2026-05-08 17:48 40.17793 19.09101 38044 ft 392 kts 310°
2026-05-08 17:48 40.21568 19.03956 38035 ft 392 kts 310°
2026-05-08 17:49 40.25326 18.98779 38028 ft 392 kts 308°
2026-05-08 17:49 40.28886 18.93391 38018 ft 391 kts 306°
2026-05-08 17:50 40.32362 18.87909 38017 ft 391 kts 306°
2026-05-08 17:50 40.35857 18.82437 38009 ft 391 kts 307°
2026-05-08 17:51 40.39375 18.76987 38016 ft 392 kts 307°
2026-05-08 17:51 40.42896 18.71537 38013 ft 392 kts 307°
2026-05-08 17:52 40.46416 18.66075 38027 ft 392 kts 307°
2026-05-08 17:53 40.51677 18.57865 38011 ft 392 kts 307°
2026-05-08 17:53 40.55165 18.52420 38004 ft 392 kts 307°
2026-05-08 17:54 40.58679 18.46941 38002 ft 392 kts 307°
2026-05-08 17:54 40.62189 18.41455 38008 ft 392 kts 306°
2026-05-08 17:55 40.65694 18.35953 38005 ft 392 kts 306°
2026-05-08 17:55 40.68627 18.31340 38000 ft 392 kts 306°
2026-05-08 17:56 40.72098 18.25869 37995 ft 392 kts 306°
2026-05-08 17:56 40.75595 18.20355 37993 ft 392 kts 306°
2026-05-08 17:57 40.79092 18.14837 38002 ft 392 kts 306°
2026-05-08 17:57 40.82588 18.09308 38000 ft 393 kts 306°
2026-05-08 17:58 40.86084 18.03761 37996 ft 393 kts 306°
2026-05-08 17:58 40.89581 17.98214 38004 ft 393 kts 306°
2026-05-08 17:59 40.93072 17.92659 38007 ft 393 kts 306°
2026-05-08 17:59 40.96557 17.87101 37998 ft 393 kts 306°
2026-05-08 18:00 41.00045 17.81528 38007 ft 393 kts 306°
2026-05-08 18:00 41.05274 17.73170 38020 ft 393 kts 306°
2026-05-08 18:01 41.08755 17.67574 38033 ft 394 kts 306°
2026-05-08 18:01 41.12243 17.61969 38024 ft 394 kts 306°
2026-05-08 18:02 41.15730 17.56354 38026 ft 394 kts 306°
2026-05-08 18:02 41.19216 17.50730 38023 ft 395 kts 306°
2026-05-08 18:03 41.22701 17.45103 38026 ft 395 kts 306°
2026-05-08 18:03 41.26187 17.39466 38028 ft 395 kts 305°
2026-05-08 18:04 41.29663 17.33817 38060 ft 395 kts 305°
2026-05-08 18:04 41.33149 17.28156 38042 ft 396 kts 305°
2026-05-08 18:05 41.36633 17.22484 38041 ft 396 kts 305°
2026-05-08 18:05 41.40114 17.16805 38041 ft 396 kts 305°
2026-05-08 18:06 41.43601 17.11101 38037 ft 397 kts 305°
2026-05-08 18:06 41.47063 17.05433 38036 ft 397 kts 305°
2026-05-08 18:07 41.50539 16.99720 38035 ft 397 kts 305°
2026-05-08 18:07 41.54018 16.93996 38042 ft 397 kts 305°
2026-05-08 18:08 41.57499 16.88272 38046 ft 397 kts 305°
2026-05-08 18:08 41.60977 16.82541 38046 ft 397 kts 305°
2026-05-08 18:09 41.64450 16.76802 38051 ft 397 kts 305°
2026-05-08 18:09 41.67917 16.71052 38051 ft 397 kts 304°
2026-05-08 18:10 41.71380 16.65293 38058 ft 397 kts 304°
2026-05-08 18:10 41.74845 16.59535 38060 ft 397 kts 304°
2026-05-08 18:11 41.78306 16.53774 38059 ft 397 kts 304°
2026-05-08 18:11 41.81770 16.48003 38061 ft 397 kts 304°
2026-05-08 18:12 41.85223 16.42224 38074 ft 397 kts 304°
2026-05-08 18:12 41.88677 16.36429 38070 ft 397 kts 304°
2026-05-08 18:13 41.92130 16.30638 38059 ft 398 kts 304°
2026-05-08 18:13 41.95596 16.24822 38056 ft 399 kts 304°
2026-05-08 18:14 41.99056 16.18992 38058 ft 399 kts 304°
2026-05-08 18:14 42.02511 16.13148 38062 ft 399 kts 304°
2026-05-08 18:15 42.05969 16.07300 38059 ft 399 kts 304°
2026-05-08 18:15 42.09404 16.01486 38059 ft 400 kts 304°
2026-05-08 18:16 42.12859 15.95622 38075 ft 400 kts 304°
2026-05-08 18:16 42.16315 15.89749 38067 ft 400 kts 304°
2026-05-08 18:17 42.19770 15.83861 38060 ft 400 kts 304°
2026-05-08 18:17 42.23214 15.77960 38063 ft 400 kts 304°
2026-05-08 18:18 42.26657 15.72054 38058 ft 400 kts 304°
2026-05-08 18:18 42.30105 15.66142 38059 ft 400 kts 304°
2026-05-08 18:19 42.33549 15.60226 38066 ft 401 kts 304°
2026-05-08 18:19 42.36991 15.54302 38093 ft 401 kts 304°
2026-05-08 18:20 42.40435 15.48362 38077 ft 401 kts 304°
2026-05-08 18:20 42.43877 15.42413 38070 ft 401 kts 304°
2026-05-08 18:21 42.47319 15.36457 38066 ft 402 kts 304°
2026-05-08 18:21 42.50760 15.30489 38065 ft 402 kts 304°
2026-05-08 18:22 42.54194 15.24508 38063 ft 402 kts 304°
2026-05-08 18:22 42.57631 15.18514 38057 ft 403 kts 304°
2026-05-08 18:23 42.61073 15.12513 38053 ft 403 kts 304°
2026-05-08 18:23 42.64490 15.06542 38081 ft 403 kts 304°
2026-05-08 18:24 42.67951 15.00478 38073 ft 404 kts 304°
2026-05-08 18:24 42.71361 14.94481 38068 ft 404 kts 303°
2026-05-08 18:25 42.74795 14.88429 38067 ft 404 kts 303°
2026-05-08 18:25 42.78227 14.82377 38065 ft 404 kts 303°
2026-05-08 18:26 42.81658 14.76311 38069 ft 404 kts 303°
2026-05-08 18:26 42.85089 14.70236 38068 ft 404 kts 303°
2026-05-08 18:27 42.87960 14.65141 38068 ft 404 kts 303°
2026-05-08 18:27 42.91940 14.58067 38090 ft 405 kts 303°
2026-05-08 18:28 42.95364 14.51966 38081 ft 405 kts 303°
2026-05-08 18:28 42.98786 14.45857 38078 ft 405 kts 303°
2026-05-08 18:29 43.02204 14.39740 38075 ft 405 kts 303°
2026-05-08 18:29 43.05617 14.33620 38074 ft 405 kts 303°
2026-05-08 18:30 43.09035 14.27487 38074 ft 405 kts 303°
2026-05-08 18:30 43.12445 14.21354 38077 ft 405 kts 303°
2026-05-08 18:31 43.15841 14.15200 38096 ft 405 kts 302°
2026-05-08 18:31 43.19024 14.08858 38087 ft 403 kts 299°
2026-05-08 18:32 43.22027 14.02379 38078 ft 403 kts 298°
2026-05-08 18:32 43.25012 13.95923 38075 ft 403 kts 299°
2026-05-08 18:33 43.28060 13.89453 38074 ft 404 kts 299°
2026-05-08 18:33 43.31125 13.82992 38078 ft 404 kts 299°
2026-05-08 18:34 43.34178 13.76523 38076 ft 404 kts 299°
2026-05-08 18:34 43.37222 13.70027 38073 ft 404 kts 299°
2026-05-08 18:35 43.40262 13.63531 38069 ft 404 kts 299°
2026-05-08 18:35 43.43300 13.57028 38089 ft 404 kts 299°
2026-05-08 18:36 43.46336 13.50511 38085 ft 405 kts 299°
2026-05-08 18:36 43.49379 13.43982 38074 ft 405 kts 299°
2026-05-08 18:37 43.52419 13.37433 38059 ft 406 kts 298°
2026-05-08 18:37 43.55454 13.30864 38059 ft 406 kts 298°
2026-05-08 18:38 43.58494 13.24289 38059 ft 407 kts 298°
2026-05-08 18:38 43.61536 13.17701 38055 ft 407 kts 298°
2026-05-08 18:39 43.64576 13.11110 38069 ft 407 kts 298°
2026-05-08 18:39 43.67614 13.04497 38087 ft 408 kts 298°
2026-05-08 18:40 43.70646 12.97867 38075 ft 409 kts 299°
2026-05-08 18:40 43.73687 12.91224 38069 ft 409 kts 298°
2026-05-08 18:41 43.76717 12.84564 38066 ft 409 kts 298°
2026-05-08 18:41 43.79750 12.77892 38065 ft 410 kts 298°
2026-05-08 18:42 43.82785 12.71216 38072 ft 410 kts 299°
2026-05-08 18:42 43.85303 12.65663 38070 ft 410 kts 298°
2026-05-08 18:43 43.88327 12.58963 38064 ft 410 kts 298°
2026-05-08 18:43 43.91348 12.52265 38063 ft 410 kts 298°
2026-05-08 18:44 43.94367 12.45550 38081 ft 410 kts 298°
2026-05-08 18:44 43.97382 12.38828 38080 ft 410 kts 298°
2026-05-08 18:45 44.00396 12.32100 38073 ft 411 kts 298°
2026-05-08 18:45 44.03412 12.25356 38070 ft 411 kts 298°
2026-05-08 18:46 44.06420 12.18602 38064 ft 411 kts 298°
2026-05-08 18:46 44.09428 12.11849 38063 ft 411 kts 298°
2026-05-08 18:47 44.12433 12.05077 38064 ft 411 kts 298°
2026-05-08 18:47 44.15435 11.98299 38076 ft 411 kts 298°
2026-05-08 18:48 44.18426 11.91527 38073 ft 410 kts 298°
2026-05-08 18:48 44.21411 11.84749 38071 ft 410 kts 298°
2026-05-08 18:49 44.24395 11.77967 38064 ft 410 kts 298°
2026-05-08 18:49 44.27367 11.71175 38059 ft 410 kts 298°
2026-05-08 18:50 44.30337 11.64377 38056 ft 410 kts 298°
2026-05-08 18:50 44.33300 11.57577 38057 ft 410 kts 298°
2026-05-08 18:51 44.36259 11.50773 38061 ft 410 kts 298°
2026-05-08 18:51 44.39223 11.43965 38062 ft 410 kts 298°
2026-05-08 18:52 44.42181 11.37146 38064 ft 410 kts 298°
2026-05-08 18:52 44.45129 11.30320 38087 ft 410 kts 298°
2026-05-08 18:53 44.48056 11.23530 38050 ft 410 kts 298°
2026-05-08 18:53 44.51006 11.16681 38044 ft 411 kts 298°
2026-05-08 18:54 44.53959 11.09811 38042 ft 411 kts 298°
2026-05-08 18:54 44.56902 11.02932 38053 ft 412 kts 298°
2026-05-08 18:55 44.61315 10.92586 38055 ft 412 kts 298°
2026-05-08 18:56 44.64260 10.85678 38059 ft 412 kts 298°
2026-05-08 18:56 44.67199 10.78758 38061 ft 412 kts 298°
2026-05-08 18:57 44.70126 10.71836 38076 ft 412 kts 298°
2026-05-08 18:57 44.73051 10.64899 38076 ft 412 kts 298°
2026-05-08 18:58 44.75979 10.57957 38067 ft 413 kts 298°
2026-05-08 18:58 44.78907 10.50998 38063 ft 413 kts 298°
2026-05-08 18:59 44.81831 10.44030 38063 ft 414 kts 298°
2026-05-08 18:59 44.84761 10.37052 38060 ft 414 kts 298°
2026-05-08 19:00 44.87679 10.30058 38041 ft 414 kts 297°
2026-05-08 19:00 44.90587 10.23048 38041 ft 414 kts 297°
2026-05-08 19:01 44.93496 10.16029 38061 ft 414 kts 297°
2026-05-08 19:01 44.96405 10.09008 38057 ft 414 kts 298°
2026-05-08 19:02 44.99307 10.01980 38063 ft 414 kts 297°
2026-05-08 19:02 45.02210 9.94946 38064 ft 414 kts 298°
2026-05-08 19:03 45.05112 9.87903 38069 ft 415 kts 297°
2026-05-08 19:03 45.08004 9.80849 38067 ft 415 kts 297°
2026-05-08 19:04 45.10885 9.73777 38066 ft 415 kts 297°
2026-05-08 19:04 45.13748 9.66750 38058 ft 415 kts 297°
2026-05-08 19:05 45.16634 9.59672 38065 ft 415 kts 297°
2026-05-08 19:05 45.19513 9.52586 38071 ft 415 kts 297°
2026-05-08 19:06 45.22387 9.45482 38068 ft 415 kts 297°
2026-05-08 19:06 45.25257 9.38372 38064 ft 415 kts 297°
2026-05-08 19:07 45.28119 9.31264 38071 ft 415 kts 297°
2026-05-08 19:07 45.30981 9.24142 38065 ft 415 kts 297°
2026-05-08 19:08 45.33844 9.17008 38065 ft 416 kts 297°
2026-05-08 19:08 45.36700 9.09857 38063 ft 416 kts 297°
2026-05-08 19:09 45.39544 9.02694 38064 ft 416 kts 297°
2026-05-08 19:09 45.42395 8.95522 38075 ft 416 kts 297°
2026-05-08 19:10 45.45250 8.88352 38079 ft 417 kts 297°
2026-05-08 19:10 45.48098 8.81164 38077 ft 417 kts 297°
2026-05-08 19:11 45.50945 8.73961 38072 ft 417 kts 297°
2026-05-08 19:11 45.53782 8.66752 38101 ft 417 kts 297°
2026-05-08 19:12 45.56612 8.59529 38095 ft 417 kts 297°
2026-05-08 19:12 45.59445 8.52303 38096 ft 417 kts 297°
2026-05-08 19:13 45.62274 8.45071 38095 ft 417 kts 297°
2026-05-08 19:13 45.65088 8.37833 38091 ft 417 kts 297°
2026-05-08 19:14 45.67898 8.30591 38113 ft 417 kts 297°
2026-05-08 19:14 45.70716 8.23332 38105 ft 417 kts 297°
2026-05-08 19:15 45.73504 8.16119 38112 ft 417 kts 297°
2026-05-08 19:15 45.76304 8.08843 38112 ft 418 kts 297°
2026-05-08 19:16 45.79103 8.01561 38108 ft 417 kts 297°
2026-05-08 19:16 45.81897 7.94285 38114 ft 417 kts 297°
2026-05-08 19:17 45.84688 7.86993 38123 ft 417 kts 297°
2026-05-08 19:17 45.87474 7.79685 38121 ft 417 kts 297°
2026-05-08 19:18 45.90253 7.72374 38111 ft 417 kts 296°
2026-05-08 19:18 45.93028 7.65054 38126 ft 417 kts 297°
2026-05-08 19:19 45.95804 7.57721 38117 ft 417 kts 297°
2026-05-08 19:19 45.98918 7.50670 38110 ft 418 kts 302°
2026-05-08 19:20 46.02217 7.43709 38063 ft 418 kts 302°
2026-05-08 19:20 46.05498 7.36784 38058 ft 419 kts 302°
2026-05-08 19:21 46.08762 7.29931 38037 ft 417 kts 302°
2026-05-08 19:21 46.12040 7.23038 38032 ft 417 kts 302°
2026-05-08 19:22 46.15321 7.16123 38048 ft 417 kts 302°
2026-05-08 19:22 46.18576 7.09259 38047 ft 414 kts 302°
2026-05-08 19:23 46.21825 7.02389 38054 ft 414 kts 302°
2026-05-08 19:23 46.25063 6.95508 38063 ft 414 kts 302°
2026-05-08 19:24 46.28293 6.88618 38056 ft 414 kts 302°
2026-05-08 19:24 46.31526 6.81704 38067 ft 415 kts 302°
2026-05-08 19:25 46.34758 6.74793 38073 ft 414 kts 302°
2026-05-08 19:25 46.37981 6.67890 38076 ft 413 kts 302°
2026-05-08 19:26 46.41195 6.60984 38068 ft 413 kts 302°
2026-05-08 19:26 46.44402 6.54074 38055 ft 413 kts 302°
2026-05-08 19:27 46.47595 6.47162 38055 ft 413 kts 302°
2026-05-08 19:27 46.50794 6.40232 38053 ft 413 kts 302°
2026-05-08 19:28 46.53983 6.33310 38053 ft 413 kts 301°
2026-05-08 19:28 46.57169 6.26377 38052 ft 412 kts 301°
2026-05-08 19:29 46.59817 6.20607 38053 ft 413 kts 301°
2026-05-08 19:29 46.62990 6.13659 38053 ft 413 kts 301°
2026-05-08 19:30 46.66161 6.06705 38051 ft 412 kts 301°
2026-05-08 19:30 46.69331 5.99737 38044 ft 413 kts 301°
2026-05-08 19:31 46.72685 5.92947 38043 ft 416 kts 314°
2026-05-08 19:31 46.77181 5.87573 38043 ft 418 kts 318°
2026-05-08 19:32 46.81744 5.82288 38034 ft 419 kts 318°
2026-05-08 19:32 46.86312 5.76988 38040 ft 419 kts 318°
2026-05-08 19:33 46.90870 5.71669 38032 ft 419 kts 318°
2026-05-08 19:33 46.95429 5.66332 38031 ft 420 kts 318°
2026-05-08 19:34 46.99987 5.60992 38019 ft 420 kts 318°
2026-05-08 19:34 47.04546 5.55647 38034 ft 420 kts 318°
2026-05-08 19:35 47.09103 5.50284 38031 ft 420 kts 318°
2026-05-08 19:35 47.13654 5.44926 38032 ft 420 kts 318°
2026-05-08 19:36 47.18206 5.39554 38030 ft 420 kts 318°
2026-05-08 19:36 47.22741 5.34165 38026 ft 420 kts 317°
2026-05-08 19:37 47.27292 5.28753 38057 ft 420 kts 318°
2026-05-08 19:37 47.31810 5.23378 38048 ft 420 kts 318°
2026-05-08 19:38 47.36351 5.17956 38047 ft 420 kts 318°
2026-05-08 19:38 47.40895 5.12521 38053 ft 420 kts 318°
2026-05-08 19:39 47.45433 5.07080 38052 ft 420 kts 318°
2026-05-08 19:39 47.49969 5.01625 38054 ft 420 kts 318°
2026-05-08 19:40 47.54502 4.96165 38058 ft 420 kts 318°
2026-05-08 19:40 47.59038 4.90693 38062 ft 420 kts 318°
2026-05-08 19:41 47.63576 4.85197 37852 ft 428 kts 318°
2026-05-08 19:41 47.65894 4.82381 37311 ft 430 kts 318°
2026-05-08 19:41 47.68196 4.79589 36717 ft 425 kts 318°
2026-05-08 19:41 47.70480 4.76819 36112 ft 422 kts 318°
2026-05-08 19:42 47.72737 4.74078 35509 ft 418 kts 318°
2026-05-08 19:42 47.74986 4.71343 34909 ft 416 kts 317°
2026-05-08 19:42 47.77205 4.68638 34333 ft 414 kts 317°
2026-05-08 19:42 47.79438 4.65912 33721 ft 413 kts 317°
2026-05-08 19:43 47.81653 4.63202 33054 ft 413 kts 318°
2026-05-08 19:43 47.83877 4.60477 32420 ft 414 kts 318°
2026-05-08 19:43 47.86087 4.57771 31881 ft 409 kts 318°
2026-05-08 19:43 47.88277 4.55088 31374 ft 407 kts 318°
2026-05-08 19:44 47.90459 4.52410 30876 ft 405 kts 319°
2026-05-08 19:44 47.92626 4.49744 30404 ft 403 kts 319°
2026-05-08 19:44 47.94775 4.47096 29889 ft 398 kts 319°
2026-05-08 19:44 47.96895 4.44484 29326 ft 393 kts 319°
2026-05-08 19:45 47.98995 4.41896 28777 ft 389 kts 319°
2026-05-08 19:45 48.01075 4.39331 28236 ft 386 kts 319°
2026-05-08 19:45 48.03134 4.36790 27707 ft 383 kts 319°
2026-05-08 19:45 48.05183 4.34261 27187 ft 384 kts 319°
2026-05-08 19:46 48.07288 4.31653 26559 ft 398 kts 319°
2026-05-08 19:46 48.09423 4.29003 26059 ft 399 kts 319°
2026-05-08 19:46 48.13691 4.23713 25149 ft 399 kts 319°
2026-05-08 19:47 48.15828 4.21059 24705 ft 398 kts 319°
2026-05-08 19:47 48.17949 4.18417 24250 ft 395 kts 319°
2026-05-08 19:47 48.20051 4.15790 23797 ft 392 kts 319°
2026-05-08 19:47 48.22139 4.13177 23289 ft 390 kts 319°
2026-05-08 19:48 48.24215 4.10583 22826 ft 388 kts 319°
2026-05-08 19:48 48.26282 4.07997 22370 ft 386 kts 319°
2026-05-08 19:48 48.28345 4.05415 21917 ft 385 kts 319°
2026-05-08 19:48 48.30397 4.02845 21458 ft 383 kts 319°
2026-05-08 19:49 48.32441 4.00279 20990 ft 382 kts 318°
2026-05-08 19:49 48.34476 3.97722 20515 ft 381 kts 318°
2026-05-08 19:49 48.36503 3.95174 20051 ft 380 kts 318°
2026-05-08 19:49 48.38438 3.92493 19621 ft 377 kts 313°
2026-05-08 19:50 48.40270 3.89670 19241 ft 377 kts 312°
2026-05-08 19:50 48.42074 3.86822 18773 ft 375 kts 311°
2026-05-08 19:50 48.43861 3.83968 18298 ft 374 kts 311°
2026-05-08 19:50 48.45640 3.81117 17759 ft 373 kts 311°
2026-05-08 19:51 48.47412 3.78277 17229 ft 371 kts 311°
2026-05-08 19:51 48.49176 3.75454 16707 ft 369 kts 311°
2026-05-08 19:51 48.50933 3.72640 16208 ft 367 kts 311°
2026-05-08 19:51 48.52678 3.69848 15694 ft 365 kts 311°
2026-05-08 19:52 48.54423 3.67067 15266 ft 364 kts 311°
2026-05-08 19:52 48.56161 3.64297 15050 ft 363 kts 311°
2026-05-08 19:52 48.57898 3.61522 15068 ft 364 kts 311°
2026-05-08 19:52 48.59635 3.58741 15073 ft 364 kts 311°
2026-05-08 19:53 48.61312 3.55876 15067 ft 364 kts 305°
2026-05-08 19:53 48.62719 3.52705 14798 ft 363 kts 302°
2026-05-08 19:53 48.64092 3.49514 14472 ft 361 kts 301°
2026-05-08 19:53 48.65452 3.46327 14158 ft 360 kts 301°
2026-05-08 19:54 48.66803 3.43148 13849 ft 359 kts 301°
2026-05-08 19:54 48.68151 3.39974 13503 ft 358 kts 301°
2026-05-08 19:54 48.69489 3.36817 13168 ft 356 kts 301°
2026-05-08 19:54 48.70820 3.33676 13065 ft 354 kts 301°
2026-05-08 19:55 48.72067 3.30739 13074 ft 355 kts 301°
2026-05-08 19:55 48.73397 3.27601 13079 ft 355 kts 301°
2026-05-08 19:55 48.74721 3.24474 13079 ft 355 kts 301°
2026-05-08 19:55 48.76056 3.21322 13078 ft 355 kts 301°
2026-05-08 19:56 48.77392 3.18167 13079 ft 355 kts 301°
2026-05-08 19:56 48.78723 3.15022 13079 ft 355 kts 301°
2026-05-08 19:56 48.80039 3.11906 13076 ft 355 kts 301°
2026-05-08 19:56 48.81384 3.08718 13076 ft 355 kts 301°
2026-05-08 19:57 48.82711 3.05570 13084 ft 355 kts 301°
2026-05-08 19:57 48.84040 3.02415 13079 ft 355 kts 302°
2026-05-08 19:57 48.85596 2.99496 13080 ft 356 kts 311°
2026-05-08 19:57 48.87271 2.96727 13079 ft 357 kts 311°
2026-05-08 19:58 48.88948 2.93956 13077 ft 357 kts 311°
2026-05-08 19:58 48.90628 2.91176 13079 ft 357 kts 311°
2026-05-08 19:58 48.92240 2.88325 13078 ft 355 kts 303°
2026-05-08 19:58 48.93282 2.84951 13080 ft 353 kts 284°
2026-05-08 19:59 48.93546 2.81267 13079 ft 351 kts 266°
2026-05-08 19:59 48.93356 2.77559 13082 ft 352 kts 265°
2026-05-08 19:59 48.93152 2.73861 13082 ft 352 kts 265°
2026-05-08 19:59 48.92964 2.70436 13082 ft 352 kts 265°
2026-05-08 20:00 48.92755 2.66595 13081 ft 352 kts 265°
2026-05-08 20:00 48.92555 2.62889 13088 ft 351 kts 265°
2026-05-08 20:00 48.92354 2.59184 13084 ft 352 kts 265°
2026-05-08 20:00 48.92160 2.55590 12990 ft 328 kts 265°
2026-05-08 20:01 48.91981 2.52294 12629 ft 301 kts 265°
2026-05-08 20:01 48.91814 2.49226 12291 ft 279 kts 265°
2026-05-08 20:01 48.91658 2.46383 11961 ft 262 kts 265°
2026-05-08 20:01 48.91506 2.43632 11634 ft 259 kts 264°
2026-05-08 20:02 48.91356 2.40921 11304 ft 256 kts 264°
2026-05-08 20:02 48.91206 2.38241 10985 ft 252 kts 264°
2026-05-08 20:02 48.91060 2.35601 10662 ft 249 kts 264°
2026-05-08 20:02 48.90915 2.32992 10349 ft 246 kts 264°
2026-05-08 20:03 48.90769 2.30408 10037 ft 244 kts 264°
2026-05-08 20:03 48.90624 2.27847 9700 ft 243 kts 264°
2026-05-08 20:03 48.90479 2.25297 9355 ft 242 kts 264°
2026-05-08 20:03 48.90331 2.22753 9011 ft 241 kts 264°
2026-05-08 20:04 48.90183 2.20212 8612 ft 241 kts 264°
2026-05-08 20:04 48.90035 2.17679 8238 ft 241 kts 264°
2026-05-08 20:04 48.89887 2.15148 7899 ft 240 kts 264°
2026-05-08 20:04 48.89741 2.12652 7576 ft 240 kts 264°
2026-05-08 20:05 48.89609 2.10093 7245 ft 239 kts 265°
2026-05-08 20:05 48.89501 2.07616 7063 ft 238 kts 265°
2026-05-08 20:05 48.89391 2.05076 7036 ft 240 kts 265°
2026-05-08 20:05 48.89278 2.02551 6704 ft 241 kts 265°
2026-05-08 20:06 48.89197 2.00017 6387 ft 239 kts 273°
2026-05-08 20:06 48.89725 1.97657 6100 ft 240 kts 305°
2026-05-08 20:06 48.91000 1.96049 5754 ft 241 kts 338°
2026-05-08 20:06 48.92633 1.95692 5427 ft 239 kts 11°
2026-05-08 20:07 48.94122 1.96691 5115 ft 234 kts 44°
2026-05-08 20:07 48.95036 1.98686 4921 ft 232 kts 66°
2026-05-08 20:07 48.95664 2.00917 4810 ft 227 kts 69°
2026-05-08 20:07 48.96163 2.03109 4901 ft 210 kts 78°
2026-05-08 20:08 48.96389 2.05219 4983 ft 192 kts 84°
2026-05-08 20:08 48.96522 2.07219 4996 ft 189 kts 85°
2026-05-08 20:08 48.96640 2.09212 5005 ft 189 kts 86°
2026-05-08 20:08 48.96756 2.11203 5008 ft 189 kts 86°
2026-05-08 20:09 48.96871 2.13199 5006 ft 189 kts 86°
2026-05-08 20:09 48.96985 2.15167 5007 ft 189 kts 86°
2026-05-08 20:09 48.97099 2.17159 5007 ft 189 kts 86°
2026-05-08 20:09 48.97213 2.19146 5005 ft 189 kts 86°
2026-05-08 20:10 48.97327 2.21142 4888 ft 189 kts 85°
2026-05-08 20:10 48.97440 2.23132 4655 ft 188 kts 85°
2026-05-08 20:10 48.97552 2.25104 4410 ft 187 kts 85°
2026-05-08 20:10 48.97663 2.27068 4161 ft 186 kts 85°
2026-05-08 20:11 48.97773 2.29020 3913 ft 185 kts 85°
2026-05-08 20:11 48.97883 2.30965 3667 ft 184 kts 85°
2026-05-08 20:11 48.97991 2.32895 3426 ft 183 kts 85°
2026-05-08 20:11 48.98098 2.34816 3178 ft 182 kts 85°
2026-05-08 20:12 48.98204 2.36725 2947 ft 181 kts 85°
2026-05-08 20:12 48.98308 2.38584 2707 ft 170 kts 85°
2026-05-08 20:12 48.98404 2.40327 2482 ft 162 kts 85°
2026-05-08 20:12 48.98497 2.42008 2263 ft 158 kts 85°
2026-05-08 20:13 48.98588 2.43665 2054 ft 155 kts 85°
2026-05-08 20:13 48.98677 2.45273 1869 ft 146 kts 84°
2026-05-08 20:13 48.98758 2.46751 1658 ft 135 kts 84°
2026-05-08 20:13 48.98835 2.48163 1475 ft 133 kts 84°
2026-05-08 20:14 48.98912 2.49573 1299 ft 133 kts 84°
2026-05-08 20:14 48.98988 2.50965 1114 ft 134 kts 84°
2026-05-08 20:14 48.99064 2.52370 935 ft 135 kts 84°
2026-05-08 20:14 48.99140 2.53808 716 ft 137 kts 84°
2026-05-08 20:15 48.99220 2.55254 542 ft 137 kts 83°
2026-05-08 20:15 48.99295 2.56700 393 ft 137 kts 83°
2026-05-08 20:15 48.99352 2.57631 356 ft 127 kts 85°
2026-05-08 20:15 48.99402 2.58641 352 ft 69 kts 85°
2026-05-08 20:16 48.99438 2.59141 354 ft 34 kts 78°
2026-05-08 20:16 48.99521 2.59435 361 ft 25 kts 65°
2026-05-08 20:16 48.99586 2.59638 360 ft 18 kts 57°
2026-05-08 20:16 48.99670 2.59692 361 ft 15 kts 356°
2026-05-08 20:17 48.99811 2.59672 353 ft 23 kts 356°
2026-05-08 20:17 48.99922 2.59658 354 ft 3 kts 355°
2026-05-08 20:17 48.99928 2.59658 354 ft 5 kts 355°
2026-05-08 20:17 49.00043 2.59644 358 ft 24 kts 355°
2026-05-08 20:18 49.00215 2.59623 354 ft 25 kts 355°
2026-05-08 20:18 49.00371 2.59604 354 ft 22 kts 355°
2026-05-08 20:18 49.00524 2.59585 360 ft 22 kts 355°
2026-05-08 20:18 49.00675 2.59567 358 ft 22 kts 355°
2026-05-08 20:19 49.00824 2.59548 354 ft 21 kts 355°
2026-05-08 20:19 49.00958 2.59531 354 ft 14 kts 354°
2026-05-08 20:19 49.01000 2.59455 359 ft 10 kts 278°
2026-05-08 20:19 49.00997 2.59334 358 ft 17 kts 265°
2026-05-08 20:20 49.00981 2.59094 361 ft 22 kts 260°
2026-05-08 20:20 49.00956 2.58904 355 ft 15 kts 268°
2026-05-08 20:20 49.00945 2.58762 357 ft 12 kts 263°
2026-05-08 20:20 49.00936 2.58632 355 ft 14 kts 264°
2026-05-08 20:21 49.00930 2.58523 355 ft 17 kts 265°
2026-05-08 20:21 49.00921 2.58358 357 ft 14 kts 265°
2026-05-08 20:21 49.00914 2.58228 355 ft 11 kts 265°
2026-05-08 20:21 49.00908 2.58096 357 ft 14 kts 266°
2026-05-08 20:22 49.00899 2.57936 361 ft 14 kts 264°
2026-05-08 20:22 49.00892 2.57818 355 ft 6 kts 265°
2026-05-08 20:22 49.00891 2.57807 355 ft 0 kts 264°
2026-05-08 20:22 49.00888 2.57785 359 ft 5 kts 250°
2026-05-08 20:23 49.00848 2.57735 356 ft 10 kts 200°
2026-05-08 20:23 49.00799 2.57673 355 ft 8 kts 248°
2026-05-08 20:23 49.00790 2.57584 356 ft 10 kts 265°
2026-05-08 20:23 49.00783 2.57465 355 ft 12 kts 265°
2026-05-08 20:24 49.00777 2.57358 361 ft 8 kts 265°
2026-05-08 20:24 49.00772 2.57286 357 ft 5 kts 261°
2026-05-08 20:24 49.00757 2.57246 360 ft 6 kts 225°
2026-05-08 20:24 49.00697 2.57231 357 ft 10 kts 175°
2026-05-08 20:25 49.00652 2.57236 357 ft 7 kts 176°
2026-05-08 20:25 49.00625 2.57247 364 ft 2 kts 146°
2026-05-08 20:25 49.00616 2.57269 357 ft 4 kts 108°
2026-05-08 20:25 49.00617 2.57305 354 ft 1 kts 84°
2026-05-08 20:26 49.00617 2.57306 354 ft 1 kts 84°
2026-05-08 20:26 49.00618 2.57320 358 ft 0 kts 85°